GW3643 Weather Reports


Display with metric or nautical units.
time (UTC)temp
F
wind
direction
speed
MPH
gust
MPH
rain 1hr
in
rain 24hr
in
rain mn
in
humidity
%
barometer
mb
20260509152542 58 202 3.0 8.0 0.02 0.21 0.21 75 1009.0
20260509152046 58 0 2.0 5.0 0.02 0.21 0.21 76 1009.0
20260509151602 58 221 0.0 4.0 0.02 0.21 0.21 76 1009.1
20260509151046 58 0 0.0 8.0 0.02 0.21 0.21 78 1009.2
20260509150542 57 0 1.0 11.0 0.02 0.21 0.21 79 1009.0
20260509150057 56 247 4.0 11.0 0.01 0.20 0.20 78 1009.2
20260509145542 57 168 5.0 11.0 0.01 0.20 0.20 75 1009.4
20260509145041 58 205 5.0 12.0 0.00 0.18 0.18 72 1009.5
20260509144613 59 181 5.0 12.0 0.00 0.18 0.18 69 1009.6
20260509144044 59 196 3.0 10.0 0.00 0.18 0.18 68 1009.3
20260509143543 59 211 5.0 15.0 0.00 0.18 0.18 68 1009.4
20260509143056 59 166 5.0 15.0 0.00 0.18 0.18 67 1009.1
20260509142541 59 199 5.0 13.0 0.00 0.18 0.18 66 1009.2
20260509142043 59 156 4.0 9.0 0.00 0.18 0.18 67 1009.0
20260509141554 59 164 4.0 11.0 0.00 0.18 0.18 69 1009.2
20260509141045 59 213 4.0 11.0 0.00 0.18 0.18 68 1009.3
20260509140542 59 205 2.0 7.0 0.00 0.18 0.18 71 1009.4
20260509140112 59 172 2.0 7.0 0.00 0.18 0.18 72 1009.5
20260509135545 59 147 1.0 7.0 0.00 0.18 0.18 73 1009.6
20260509135046 58 0 2.0 7.0 0.01 0.18 0.18 72 1009.6
20260509134552 58 151 1.0 6.0 0.02 0.18 0.18 76 1009.6
20260509134049 57 0 1.0 6.0 0.03 0.18 0.18 80 1009.6
20260509133545 56 149 2.0 5.0 0.03 0.18 0.18 79 1009.7
20260509133102 56 0 2.0 6.0 0.06 0.18 0.18 82 1009.8
20260509132545 56 122 1.0 7.0 0.07 0.18 0.18 82 1009.8
20260509132046 55 48 3.0 7.0 0.07 0.18 0.18 82 1010.0
20260509131556 55 0 2.0 10.0 0.07 0.18 0.18 84 1010.0
20260509131049 54 164 5.0 12.0 0.07 0.18 0.18 85 1010.1
20260509130546 54 169 4.0 12.0 0.07 0.18 0.18 85 1010.2
20260509130057 54 162 4.0 9.0 0.08 0.18 0.18 86 1010.3
20260509125542 54 214 3.0 7.0 0.07 0.18 0.18 86 1010.3
20260509125044 53 230 2.0 9.0 0.07 0.17 0.17 85 1010.2
20260509124606 53 234 2.0 9.0 0.07 0.16 0.16 86 1010.2
20260509124043 53 200 2.0 4.0 0.06 0.15 0.15 86 1010.2
20260509123545 54 0 1.0 4.0 0.04 0.14 0.14 86 1010.1
20260509123053 54 0 0.0 4.0 0.03 0.12 0.12 86 1010.3
20260509122542 54 232 0.0 3.0 0.02 0.11 0.11 86 1010.1
20260509122042 55 0 0.0 4.0 0.01 0.11 0.11 86 1009.9
20260509121604 54 324 1.0 4.0 0.01 0.11 0.11 86 1009.9
20260509121048 55 0 1.0 4.0 0.01 0.11 0.11 86 1009.9
20260509120545 55 0 0.0 4.0 0.01 0.11 0.11 86 1010.0
20260509120052 55 276 0.0 3.0 0.00 0.10 0.10 87 1009.9
20260509115542 55 294 0.0 3.0 0.00 0.10 0.10 86 1009.9
20260509115042 55 0 0.0 3.0 0.00 0.10 0.10 85 1009.8
20260509114557 55 0 0.0 5.0 0.00 0.09 0.09 85 1009.9
20260509114043 55 0 2.0 5.0 0.00 0.09 0.09 84 1009.9
20260509113546 55 257 0.0 4.0 0.01 0.09 0.09 84 1009.9
20260509113059 55 0 0.0 3.0 0.02 0.09 0.09 84 1009.8
20260509112546 55 219 0.0 3.0 0.03 0.09 0.09 85 1009.8
20260509112045 54 0 0.0 5.0 0.06 0.09 0.09 84 1009.8
20260509111603 54 0 1.0 5.0 0.08 0.09 0.09 84 1009.8
20260509111042 55 188 0.0 5.0 0.09 0.09 0.09 84 1009.8
20260509110549 55 0 0.0 4.0 0.09 0.09 0.09 84 1010.0
20260509110056 55 317 1.0 4.0 0.09 0.09 0.09 84 1009.9
20260509105549 55 294 1.0 4.0 0.09 0.12 0.09 83 1009.9
20260509105047 55 0 1.0 4.0 0.09 0.12 0.09 82 1009.8
20260509104552 55 213 2.0 8.0 0.08 0.11 0.08 81 1009.9
20260509104046 54 232 2.0 11.0 0.08 0.11 0.08 81 1009.9
20260509103546 54 197 5.0 15.0 0.07 0.11 0.07 79 1009.9
20260509103104 54 176 6.0 21.0 0.07 0.10 0.07 78 1010.0
20260509102546 55 175 6.0 22.0 0.05 0.08 0.05 76 1009.9
20260509102046 56 176 10.0 22.0 0.02 0.05 0.02 74 1009.9
20260509101553 56 159 9.0 17.0 0.00 0.03 0.00 75 1009.8
20260509101045 57 224 8.0 14.0 0.00 0.03 0.00 74 1009.8
20260509100545 57 180 5.0 16.0 0.00 0.03 0.00 73 1009.5
20260509100054 57 176 8.0 17.0 0.00 0.03 0.00 71 1009.6
20260509095543 57 188 8.0 18.0 0.00 0.04 0.00 71 1009.5
20260509095045 58 171 8.0 18.0 0.00 0.04 0.00 70 1009.5
20260509094555 58 181 8.0 18.0 0.00 0.04 0.00 69 1009.4
20260509094043 58 161 8.0 16.0 0.00 0.04 0.00 70 1009.4
20260509093545 58 184 8.0 12.0 0.00 0.04 0.00 70 1009.4
20260509093056 58 184 6.0 14.0 0.00 0.04 0.00 70 1009.3
20260509092546 57 188 5.0 16.0 0.00 0.04 0.00 71 1009.4
20260509092043 57 174 8.0 16.0 0.00 0.04 0.00 72 1009.4
20260509091550 57 185 8.0 16.0 0.00 0.04 0.00 71 1009.5
20260509091045 57 201 8.0 15.0 0.00 0.04 0.00 72 1009.6
20260509090543 57 191 5.0 13.0 0.00 0.04 0.00 72 1009.5
20260509085541 56 196 8.0 16.0 0.00 0.04 0.00 73 1009.5
20260509085045 56 188 6.0 16.0 0.00 0.04 0.00 73 1009.6
20260509084553 56 180 6.0 11.0 0.00 0.04 0.00 74 1009.5
20260509084043 56 147 3.0 14.0 0.00 0.04 0.00 74 1009.5
20260509083545 56 195 4.0 14.0 0.00 0.04 0.00 74 1009.5
20260509083059 56 106 6.0 14.0 0.00 0.04 0.00 74 1009.5
20260509082542 56 151 6.0 14.0 0.00 0.04 0.00 74 1009.4
20260509082046 56 143 6.0 12.0 0.00 0.04 0.00 74 1009.4
20260509081552 56 143 5.0 11.0 0.00 0.04 0.00 74 1009.4
20260509081047 56 191 4.0 12.0 0.00 0.04 0.00 75 1009.5
20260509080545 55 72 6.0 12.0 0.00 0.04 0.00 75 1009.5
20260509080059 55 183 4.0 12.0 0.00 0.04 0.00 76 1009.4
20260509075543 55 191 6.0 12.0 0.00 0.04 0.00 76 1009.5
20260509075042 55 152 5.0 12.0 0.00 0.04 0.00 76 1009.6
20260509074553 55 170 4.0 12.0 0.00 0.04 0.00 76 1009.5
20260509074047 55 156 4.0 10.0 0.00 0.04 0.00 77 1009.5
20260509073542 55 174 3.0 14.0 0.00 0.04 0.00 77 1009.4
20260509073052 54 159 6.0 14.0 0.00 0.04 0.00 77 1009.4
20260509072544 54 164 3.0 9.0 0.00 0.04 0.00 77 1009.4
20260509072043 54 157 3.0 10.0 0.00 0.04 0.00 78 1009.4
20260509071551 54 164 2.0 11.0 0.00 0.04 0.00 78 1009.4
20260509071045 54 193 6.0 11.0 0.00 0.04 0.00 78 1009.6
20260509070543 54 181 2.0 6.0 0.00 0.04 0.00 79 1009.7
20260509070051 54 152 2.0 7.0 0.00 0.04 0.00 79 1009.7
20260509065542 54 176 4.0 7.0 0.00 0.04 0.00 79 1009.8
20260509065046 54 178 2.0 11.0 0.00 0.04 0.00 79 1009.8
20260509064552 54 199 5.0 11.0 0.00 0.04 0.00 79 1009.8
20260509064042 54 187 4.0 11.0 0.00 0.04 0.00 79 1009.9
20260509063546 54 188 6.0 11.0 0.00 0.04 0.00 79 1009.8
20260509063056 54 210 4.0 9.0 0.00 0.04 0.00 79 1009.7
20260509062546 54 168 3.0 8.0 0.00 0.04 0.00 79 1009.5
20260509062046 54 170 5.0 8.0 0.00 0.04 0.00 79 1009.7
20260509061555 54 170 3.0 8.0 0.00 0.04 0.00 79 1009.7
20260509061045 54 179 4.0 9.0 0.00 0.04 0.00 79 1009.6
20260509060545 54 182 4.0 10.0 0.00 0.04 0.00 79 1009.5
20260509060100 54 181 4.0 10.0 0.00 0.04 0.00 78 1009.5
20260509055545 54 160 5.0 10.0 0.00 0.04 0.00 78 1009.7
20260509055043 54 101 3.0 10.0 0.00 0.04 0.00 78 1009.5
20260509054549 54 183 4.0 9.0 0.00 0.04 0.00 78 1009.7
20260509054042 54 177 3.0 11.0 0.00 0.04 0.00 78 1009.8
20260509053544 54 197 4.0 11.0 0.00 0.04 0.00 78 1009.7
20260509053132 54 219 4.0 10.0 0.00 0.04 0.00 78 1009.7
20260509052545 54 164 2.0 10.0 0.00 0.04 0.00 78 1009.7
20260509052044 54 191 3.0 10.0 0.00 0.04 0.00 78 1009.7
20260509051555 54 170 4.0 17.0 0.00 0.04 0.00 78 1009.6
20260509051045 54 164 5.0 17.0 0.00 0.04 0.00 78 1009.5
20260509050545 54 159 4.0 16.0 0.00 0.04 0.00 78 1009.4
20260509050052 54 161 2.0 11.0 0.00 0.04 0.00 79 1009.3
20260509045547 54 148 3.0 11.0 0.00 0.04 0.00 79 1009.0
20260509045045 54 155 4.0 9.0 0.00 0.04 0.00 79 1008.7
20260509044553 54 93 5.0 9.0 0.00 0.04 0.00 79 1008.4
20260509044045 54 143 3.0 10.0 0.00 0.04 0.00 79 1008.5
20260509043541 54 152 3.0 10.0 0.00 0.04 0.00 79 1008.5
20260509043109 54 153 3.0 10.0 0.00 0.04 0.00 79 1008.8
20260509042545 54 128 3.0 9.0 0.00 0.04 0.00 79 1008.8
20260509042048 54 206 3.0 8.0 0.00 0.04 0.00 79 1008.5
20260509041602 54 172 3.0 8.0 0.00 0.04 0.00 78 1008.6
20260509041048 54 168 3.0 10.0 0.00 0.04 0.00 78 1008.6
20260509040544 54 139 3.0 10.0 0.00 0.04 0.00 78 1008.5
20260509040105 54 137 2.0 11.0 0.00 0.04 0.00 78 1008.5
20260509035542 54 128 3.0 11.0 0.00 0.04 0.00 78 1008.7
20260509035043 55 205 3.0 12.0 0.00 0.04 0.00 77 1008.7
20260509034604 55 136 4.0 12.0 0.00 0.04 0.00 77 1008.8
20260509034044 55 182 4.0 11.0 0.00 0.04 0.00 77 1008.9
20260509033542 55 186 5.0 12.0 0.00 0.04 0.00 77 1009.2
20260509033054 55 199 6.0 13.0 0.00 0.04 0.00 77 1009.4
20260509032546 55 182 4.0 13.0 0.00 0.04 0.00 77 1009.5
20260509032041 55 152 5.0 14.0 0.00 0.04 0.00 76 1009.5
20260509031605 55 176 5.0 14.0 0.00 0.04 0.00 76 1009.6
20260509031047 55 197 6.0 13.0 0.00 0.04 0.00 76 1009.6
20260509030549 55 169 5.0 12.0 0.00 0.04 0.00 76 1009.7
20260509030053 55 166 4.0 12.0 0.00 0.04 0.00 76 1009.6
20260509025546 55 147 6.0 12.0 0.00 0.04 0.00 76 1009.7
20260509025043 55 139 5.0 12.0 0.00 0.04 0.00 76 1009.7
20260509024553 55 190 3.0 11.0 0.00 0.04 0.00 77 1009.7
20260509024043 55 162 5.0 11.0 0.00 0.04 0.00 77 1009.6
20260509023545 55 185 6.0 9.0 0.00 0.04 0.00 77 1009.5
20260509023050 55 191 3.0 9.0 0.00 0.04 0.00 77 1009.6
20260509022542 55 186 3.0 9.0 0.00 0.04 0.00 77 1009.5
20260509022043 55 170 3.0 11.0 0.00 0.04 0.00 77 1009.5
20260509021555 55 195 3.0 12.0 0.00 0.04 0.00 77 1009.4
20260509021046 55 182 4.0 12.0 0.00 0.04 0.00 77 1009.5
20260509020545 55 130 3.0 9.0 0.00 0.04 0.00 77 1009.5
20260509020054 55 164 5.0 9.0 0.00 0.04 0.00 77 1009.6
20260509015544 55 149 2.0 8.0 0.00 0.04 0.00 77 1009.7
20260509015048 55 147 3.0 11.0 0.00 0.04 0.00 77 1009.6
20260509014556 55 145 4.0 11.0 0.00 0.04 0.00 77 1009.7
20260509014045 55 170 3.0 11.0 0.00 0.04 0.00 77 1009.7
20260509013543 55 84 5.0 11.0 0.00 0.04 0.00 77 1009.8
20260509013053 55 126 4.0 12.0 0.00 0.04 0.00 77 1009.7
20260509012543 55 213 5.0 12.0 0.00 0.04 0.00 77 1009.7
20260509012045 55 176 4.0 8.0 0.00 0.04 0.00 77 1009.8
20260509011552 55 175 3.0 8.0 0.00 0.04 0.00 77 1009.8
20260509011046 55 166 3.0 8.0 0.00 0.04 0.00 77 1009.9
20260509010548 55 143 3.0 10.0 0.00 0.04 0.00 77 1009.9
20260509010055 55 120 4.0 10.0 0.00 0.04 0.00 76 1009.8
20260509005550 55 136 3.0 8.0 0.00 0.04 0.00 77 1010.0
20260509005044 55 103 3.0 8.0 0.00 0.04 0.00 76 1010.0
20260509004550 55 151 3.0 8.0 0.00 0.04 0.00 76 1010.0
20260509004042 55 0 2.0 5.0 0.00 0.04 0.00 76 1010.0
20260509003543 55 142 2.0 5.0 0.00 0.04 0.00 76 1010.1
20260509003057 54 149 1.0 7.0 0.00 0.04 0.00 76 1010.1
20260509002544 54 143 2.0 7.0 0.00 0.04 0.00 76 1010.1
20260509002045 54 151 1.0 7.0 0.00 0.04 0.00 77 1010.2
20260509001547 54 182 2.0 6.0 0.00 0.04 0.00 76 1010.2
20260509001044 54 0 2.0 8.0 0.00 0.04 0.00 77 1010.2
20260509000546 54 87 2.0 8.0 0.00 0.04 0.00 76 1010.3
20260509000051 54 104 3.0 7.0 0.00 0.04 0.00 76 1010.4
20260508235543 55 132 1.0 6.0 0.00 0.04 0.00 75 1010.3
20260508235042 55 125 2.0 7.0 0.00 0.04 0.00 75 1010.4
20260508234552 55 122 2.0 7.0 0.00 0.04 0.00 75 1010.4
20260508234042 55 155 2.0 6.0 0.00 0.04 0.00 75 1010.3
20260508233542 55 101 2.0 6.0 0.00 0.04 0.00 75 1010.3
20260508233104 55 88 0.0 6.0 0.00 0.04 0.00 74 1010.3
20260508232543 55 95 1.0 6.0 0.00 0.04 0.00 74 1010.3
20260508232045 56 80 2.0 8.0 0.00 0.04 0.00 73 1010.2
20260508231559 56 132 2.0 8.0 0.00 0.04 0.00 73 1010.3
20260508231043 56 132 2.0 8.0 0.00 0.04 0.00 73 1010.3
20260508230544 56 0 2.0 8.0 0.00 0.04 0.00 72 1010.3
20260508230106 56 0 2.0 6.0 0.00 0.04 0.00 72 1010.3
20260508225543 56 104 1.0 4.0 0.00 0.04 0.00 72 1010.4
20260508225043 56 84 1.0 4.0 0.00 0.04 0.00 72 1010.4
20260508224550 56 127 0.0 4.0 0.00 0.04 0.00 72 1010.4
20260508224042 56 0 1.0 4.0 0.00 0.04 0.00 72 1010.5
20260508223542 56 139 0.0 4.0 0.00 0.04 0.00 72 1010.7
20260508223051 56 0 0.0 4.0 0.00 0.04 0.00 72 1010.5
20260508222542 56 57 1.0 4.0 0.00 0.04 0.00 72 1010.7
20260508222044 57 0 1.0 5.0 0.00 0.04 0.00 71 1010.6
20260508221551 57 28 1.0 5.0 0.00 0.04 0.00 71 1010.7
20260508221045 57 105 1.0 5.0 0.00 0.04 0.00 70 1010.7
20260508220542 57 72 1.0 5.0 0.00 0.04 0.00 70 1010.6
20260508220050 57 128 1.0 6.0 0.00 0.04 0.00 69 1010.7
20260508215545 57 65 1.0 6.0 0.00 0.04 0.04 68 1010.7
20260508215043 57 143 1.0 5.0 0.00 0.04 0.04 67 1010.6
20260508214547 57 104 1.0 6.0 0.00 0.04 0.04 66 1010.7
20260508214043 58 114 1.0 6.0 0.00 0.04 0.04 65 1010.8
20260508213542 58 127 1.0 4.0 0.00 0.04 0.04 64 1010.7
20260508213051 58 0 1.0 5.0 0.00 0.04 0.04 64 1010.8
20260508212543 58 128 1.0 5.0 0.00 0.04 0.04 63 1010.8
20260508212043 58 104 2.0 5.0 0.00 0.04 0.04 62 1010.8
20260508211550 58 156 1.0 4.0 0.00 0.04 0.04 62 1010.8
20260508211044 58 79 1.0 7.0 0.00 0.04 0.04 62 1010.8
20260508210546 58 89 0.0 7.0 0.00 0.04 0.04 62 1010.6
20260508210050 58 147 0.0 5.0 0.00 0.04 0.04 62 1010.6
20260508205542 58 64 1.0 5.0 0.00 0.04 0.04 61 1010.5
20260508205045 58 37 1.0 5.0 0.00 0.04 0.04 61 1010.5
20260508204551 58 0 0.0 5.0 0.00 0.04 0.04 61 1010.4
20260508204042 58 68 1.0 5.0 0.00 0.04 0.04 61 1010.6
20260508203548 58 0 1.0 5.0 0.00 0.04 0.04 61 1010.4
20260508203051 59 0 1.0 5.0 0.00 0.04 0.04 61 1010.4
20260508202543 59 73 1.0 5.0 0.00 0.04 0.04 60 1010.4
20260508202045 59 130 2.0 5.0 0.00 0.04 0.04 61 1010.3
20260508201550 59 64 1.0 5.0 0.00 0.04 0.04 61 1010.3
20260508201043 59 103 1.0 5.0 0.00 0.04 0.04 61 1010.2
20260508200542 59 64 2.0 5.0 0.00 0.04 0.04 61 1010.2
20260508200055 59 71 1.0 5.0 0.00 0.04 0.04 61 1010.2
20260508195543 59 123 0.0 4.0 0.00 0.04 0.04 62 1010.2
20260508195042 59 128 0.0 4.0 0.00 0.04 0.04 62 1010.1
20260508194549 59 62 1.0 4.0 0.00 0.04 0.04 62 1010.1
20260508194045 60 0 1.0 4.0 0.00 0.04 0.04 61 1010.1
20260508193542 60 148 0.0 3.0 0.00 0.04 0.04 61 1010.0
20260508193115 60 55 0.0 5.0 0.00 0.04 0.04 61 1010.0
20260508192542 60 0 1.0 5.0 0.00 0.04 0.04 60 1010.0
20260508192046 60 355 1.0 4.0 0.00 0.04 0.04 60 1009.9
20260508191559 60 11 2.0 4.0 0.00 0.04 0.04 59 1009.8
20260508191045 60 0 1.0 3.0 0.00 0.04 0.04 59 1009.9
20260508190542 60 0 0.0 2.0 0.00 0.04 0.04 59 1009.9
20260508190054 60 0 0.0 2.0 0.00 0.04 0.04 59 1009.8
20260508185545 60 0 0.0 2.0 0.00 0.04 0.04 59 1009.7
20260508185044 61 0 0.0 2.0 0.00 0.04 0.04 58 1009.7
20260508184608 61 0 0.0 2.0 0.00 0.04 0.04 58 1009.7
20260508184044 61 0 0.0 1.0 0.00 0.04 0.04 58 1009.6
20260508183542 61 0 0.0 1.0 0.00 0.04 0.04 57 1009.6
20260508183051 61 0 0.0 2.0 0.00 0.04 0.04 57 1009.5
20260508182542 61 309 1.0 2.0 0.00 0.04 0.04 57 1009.5
20260508182042 61 309 0.0 3.0 0.00 0.04 0.04 57 1009.4
20260508181558 62 309 1.0 3.0 0.00 0.04 0.04 56 1009.5
20260508181043 62 0 0.0 3.0 0.00 0.04 0.04 56 1009.5
20260508180542 62 351 0.0 3.0 0.00 0.04 0.04 56 1009.6
20260508180056 62 0 1.0 3.0 0.00 0.04 0.04 56 1009.5
20260508175542 62 346 0.0 4.0 0.00 0.04 0.04 56 1009.5
20260508175045 62 0 1.0 4.0 0.00 0.04 0.04 55 1009.5
20260508174558 62 309 1.0 4.0 0.00 0.04 0.04 55 1009.5
20260508174042 62 0 0.0 5.0 0.00 0.04 0.04 54 1009.5
20260508173542 63 322 2.0 7.0 0.00 0.04 0.04 54 1009.7
20260508173101 62 304 3.0 7.0 0.00 0.04 0.04 54 1009.6
20260508172544 63 351 2.0 4.0 0.00 0.04 0.04 53 1009.6
20260508172043 63 351 0.0 3.0 0.00 0.04 0.04 54 1009.6
20260508171606 63 311 0.0 3.0 0.00 0.04 0.04 54 1009.5
20260508171042 62 0 1.0 4.0 0.00 0.04 0.04 55 1009.6
20260508170547 63 311 0.0 5.0 0.00 0.04 0.04 55 1009.5
20260508165542 62 3 1.0 3.0 0.00 0.04 0.04 54 1009.5
20260508165043 62 301 0.0 2.0 0.00 0.04 0.04 56 1009.6
20260508164556 61 0 0.0 3.0 0.00 0.04 0.04 54 1009.7
20260508164045 62 319 0.0 3.0 0.00 0.04 0.04 53 1009.7
20260508163542 62 0 1.0 3.0 0.00 0.04 0.04 55 1009.8
20260508163050 61 317 0.0 3.0 0.00 0.04 0.04 57 1009.8
20260508162545 61 306 0.0 5.0 0.00 0.04 0.04 56 1009.9
20260508162043 61 0 1.0 5.0 0.00 0.04 0.04 58 1009.8
20260508161548 61 308 1.0 4.0 0.00 0.04 0.04 56 1009.8
20260508161045 62 357 1.0 5.0 0.00 0.04 0.04 56 1009.8
20260508160543 61 0 1.0 5.0 0.00 0.04 0.04 59 1009.7
20260508160055 59 0 0.0 5.0 0.00 0.04 0.04 62 1009.7
20260508155547 60 357 2.0 5.0 0.00 0.06 0.04 60 1009.8
20260508155045 58 56 1.0 7.0 0.00 0.06 0.04 62 1009.8
20260508154550 59 346 2.0 7.0 0.00 0.06 0.04 63 1009.8
20260508154044 59 0 3.0 7.0 0.00 0.06 0.04 67 1009.8
20260508153545 59 360 3.0 8.0 0.00 0.06 0.04 67 1009.9
20260508153052 58 335 1.0 9.0 0.00 0.06 0.04 70 1010.0